Home > Weather > Danmarkshavn > Past weeks

Flag for Greenland Past Weather in Danmarkshavn, Greenland — Yesterday and Last 2 Weeks

Now
44 °F

Sunny.


Feels Like: 36 °F
Forecast: 36 / 44 °F
Wind: 15 mph from Northwest

Location: Danmarkshavn

Current Time: Jun 27, 2016 at 7:51:35 AM

Latest Report: Jun 27, 2016 at 6:00 AM


Visibility: 31 mi

Pressure: 29.77 "Hg

Humidity: 73%

Dew Point: 35 °F

Location of DanmarkshavnLocation

Past Weather in Danmarkshavn — Graph

°F

Danmarkshavn Temperature Yesterday

Maximum temperature yesterday: 41 °F (at 11:00 PM)
Minimum temperature yesterday: 31 °F (at 2:00 AM)
Average temperature yesterday: 35 °F

High & Low Weather Summary for the Past Weeks

 TemperatureHumidityPressure
High51 °F (Jun 19, 11:00 AM)99% (Jun 14, 2:00 AM)30.12 "Hg (Jun 14, 2:00 AM)
Low28 °F (Jun 15, 1:00 AM)47% (Jun 19, 11:00 AM)29.41 "Hg (Jun 20, 6:00 AM)
Average37 °F82%29.77 "Hg
* Reported Jun 12 6:00 AM — Jun 27 6:00 AM, Danmarkshavn, Weather by CustomWeather, © 2016

Note: Actual official high and low records may vary slightly from our data, if they occured in-between our weather recording intervals... More about our weather records

Advertising

Danmarkshavn Weather History for the Previous 24 Hours

Scroll right to see more
 ConditionsComfort  
Time TempWeatherWind HumidityBarometerVisibility
6:00 AM
Mon, Jun 27
44 °FSunny.15 mph73%29.77 "Hg31 mi
5:00 AM44 °FSunny.14 mph71%29.76 "Hg31 mi
4:00 AM44 °FSunny.10 mph74%29.76 "Hg31 mi
3:00 AM45 °FSunny.No wind71%29.76 "Hg31 mi
2:00 AM37 °FSunny.2 mph81%29.77 "Hg31 mi
1:00 AM37 °FSunny.6 mph84%29.77 "Hg31 mi
12:00 AM40 °FSunny.1 mph81%29.77 "Hg31 mi
11:00 PM
Sun, Jun 26
41 °FSunny.2 mph81%29.77 "Hg31 mi
10:00 PM39 °FSunny.1 mph83%29.78 "Hg31 mi
9:00 PM37 °FSunny.2 mph86%29.78 "Hg31 mi
8:00 PM38 °FSunny.3 mph83%29.77 "Hg31 mi
7:00 PM37 °FSunny.2 mph85%29.77 "Hg31 mi
6:00 PM36 °FSunny.2 mph86%29.78 "Hg31 mi
3:00 PM36 °FSunny.3 mph85%29.78 "Hg25 mi
1:00 PM35 °FSunny.8 mph87%29.79 "Hg25 mi
12:00 PM36 °FSunny.6 mph83%29.78 "Hg28 mi
11:00 AM36 °FSunny.6 mph82%29.78 "Hg28 mi
10:00 AM36 °FSunny.2 mph80%29.79 "Hg25 mi
9:00 AM36 °FSunny.2 mph76%29.78 "Hg28 mi
8:00 AM34 °FSunny.3 mph80%29.78 "Hg31 mi
7:00 AM33 °FSunny.2 mph85%29.78 "Hg31 mi
Weather by CustomWeather, © 2016

See weather overviewHow to use our weather pages